Regional Weather Roundup
Issued by NWS Goodland, KS

Home | Current Version | Previous Version | Text Only | Print | Product List | Glossary On
Versions: 1 2 3 4 5 6 7 8 9 10 11 12 13 14 15 16 17 18 19 20 21 22 23 24 25 26 27 28 29 30 31 32 33 34 35 36 37 38 39 40 41 42 43 44 45 46 47 48 49 50
000
ASUS43 KGLD 232008
RWRGLD

GOODLAND FORECAST AREA HOURLY WEATHER ROUNDUP
NATIONAL WEATHER SERVICE GOODLAND KS
100 PM MST SUN NOV 23 2014

...OFFICIAL OBSERVATIONS...

CITY           SKY/WX    TMP DP  RH WIND       PRES   REMARKS
GOODLAND KS    PTSUNNY   45  10  24 N30G47    29.69R
HILL CITY KS   CLOUDY    48  23  37 N29G39    29.61S
IMPERIAL NEB   PTSUNNY   48  11  22 N31G41    29.68F
MCCOOK NEB     CLOUDY    49  18  29 N29G37    29.63F
AKRON CO       SUNNY     42  13  30 N29G36    29.75S
BURLINGTON CO  PTSUNNY   45  11  25 N30G39    29.70S
LIMON CO       CLOUDY    39  14  36 N24G30    29.75F
$$

...UNOFFICIAL OBSERVATIONS...

CITY           SKY/WX    TMP DP  RH WIND       PRES   REMARKS
COLBY KS       SUNNY     48  21  34 N26G40    29.65S
GOVE KS          N/A     49  32  52 MISG        N/A
NORTON KS      SUNNY     48  18  29 N25G36    29.59F
SHARON SPRINGS   N/A     46   9  22 N28G40      N/A
TRENTON NEB      N/A     49  32  52 NW25        N/A
YUMA CO          N/A     44  12  27 N21G35      N/A
$$


USA.gov is the U.S. government's official web portal to all federal, state and local government web resources and services.